Tracking 19651 objects as of 23-Apr-2019
HD Live streaming from Space Station
objects crossing your sky now

FLOCK 3P 70

Track FLOCK 3P 70 now!
10-day predictions
FLOCK 3P 70 is classified as:


NORAD ID: 41980
Int'l Code: 2017-008AJ
Perigee: 491.9 km
Apogee: 502.4 km
Inclination: 97.4 °
Period: 94.4 minutes
Semi major axis: 6868 km
RCS: Unknown
Launch date: February 15, 2017
Source: United States (US)
Launch site: SRIHARIKOTA (SRI)
aabbcc
Your satellite tracking list
Your tracking list is empty




NASA's NSSDC Master Catalog

Two Line Element Set (TLE):
1 41980U 17008AJ  19112.42345131  .00001341  00000-0  56209-4 0  9990
2 41980  97.4137 180.2648 0007619 359.7474   0.3758 15.25251614121061
Source of the keplerian elements: AFSPC